Regional Weather Roundup
Issued by NWS

Home | Current Version | Previous Version | Text Only | Print | Product List | Glossary Off
Versions: 1 2 3 4 5 6 7 8 9 10 11 12 13 14 15 16 17 18 19 20 21 22 23 24 25 26 27 28 29 30 31 32 33 34 35 36 37 38 39 40 41 42 43 44 45 46 47 48 49 50

000
ASUS43 KBIS 220310
RWRND

NORTH DAKOTA REGIONAL WEATHER ROUNDUP
NATIONAL WEATHER SERVICE BISMARCK ND
1000 PM CDT TUE OCT 21 2014

NOTE: "FAIR" INDICATES FEW OR NO CLOUDS BELOW 12,000 FEET WITH NO
SIGNIFICANT WEATHER AND/OR OBSTRUCTIONS TO VISIBILITY.


NDZ001>003-009>011-017-220400-
NORTHWEST NORTH DAKOTA

CITY           SKY/WX    TMP DP  RH WIND       PRES   REMARKS
WILLISTON      PTCLDY    46  40  79 CALM      29.58S
MINOT          CLEAR     59  46  62 SE9       29.59F
MINOT AFB      CLEAR     53  47  83 SE8       29.59S
$$

NDZ018>021-031>035-040>046-220400-
SOUTHWEST NORTH DAKOTA

CITY           SKY/WX    TMP DP  RH WIND       PRES   REMARKS
BISMARCK       CLEAR     66  41  40 SE15      29.68S
DICKINSON      CLEAR     58  45  62 S8        29.62R
GARRISON         N/A     66  50  56 S13       29.61F
HETTINGER ARPT PTCLDY    66  44  45 S12       29.67R
$$

NDZ004>008-012>016-024-026-027-054-220400-
NORTHEAST NORTH DAKOTA

CITY           SKY/WX    TMP DP  RH WIND       PRES   REMARKS
GRAND FORKS    PTCLDY    55  41  59 S18G32    29.86R
GRND FRKS AFB  PTCLDY    56  42  59 S18G30    29.85R
DEVILS LAKE    CLEAR     61  43  51 S24G32    29.74S
$$

NDZ022-023-025-028>030-036>039-047>053-220400-
SOUTHEAST NORTH DAKOTA

CITY           SKY/WX    TMP DP  RH WIND       PRES   REMARKS
FARGO          CLEAR     58  41  53 SE24G35   29.91S
JAMESTOWN      CLEAR     58  43  57 SE16      29.80R
$$




USA.gov is the U.S. government's official web portal to all federal, state and local government web resources and services.